Regional Weather Roundup
Issued by NWS

Home | Current Version | Previous Version | Text Only | Print | Product List | Glossary Off
Versions: 1 2 3 4 5 6 7 8 9 10 11 12 13 14 15 16 17 18 19 20 21 22 23 24 25 26 27 28 29 30 31 32 33 34 35 36 37 38 39 40 41 42 43 44 45 46 47 48 49 50

000
ASUS43 KBIS 300610
RWRND

NORTH DAKOTA REGIONAL WEATHER ROUNDUP
NATIONAL WEATHER SERVICE BISMARCK ND
100 AM CDT SAT MAY 30 2015

NOTE: "FAIR" INDICATES FEW OR NO CLOUDS BELOW 12,000 FEET WITH NO
SIGNIFICANT WEATHER AND/OR OBSTRUCTIONS TO VISIBILITY.


NDZ001>003-009>011-017-300700-
NORTHWEST NORTH DAKOTA

CITY           SKY/WX    TMP DP  RH WIND       PRES   REMARKS
WILLISTON      CLEAR     48  30  49 E7        30.29S
6HR MIN TEMP:  45; 6HR MAX TEMP:  60;

MINOT          CLEAR     39  33  79 E7        30.33R
MINOT AFB      CLEAR     42  39  89 E12       30.32
$$

NDZ018>021-031>035-040>046-300700-
SOUTHWEST NORTH DAKOTA

CITY           SKY/WX    TMP DP  RH WIND       PRES   REMARKS
BISMARCK       CLEAR     42  35  76 E7        30.31R
6HR MIN TEMP:  41; 6HR MAX TEMP:  57;

DICKINSON      CLEAR     39  31  72 SE7       30.28S
GARRISON         N/A     43  36  76 NE7       30.30S
6HR MIN TEMP:  39; 6HR MAX TEMP:  57;

HETTINGER ARPT CLEAR     37  33  85 CALM      30.30S
$$

NDZ004>008-012>016-024-026-027-054-300700-
NORTHEAST NORTH DAKOTA

CITY           SKY/WX    TMP DP  RH WIND       PRES   REMARKS
GRAND FORKS    CLEAR     38  30  73 N14       30.34R
DEVILS LAKE    CLEAR     39  25  56 NE10      30.34R
$$

NDZ022-023-025-028>030-036>039-047>053-300700-
SOUTHEAST NORTH DAKOTA

CITY           SKY/WX    TMP DP  RH WIND       PRES   REMARKS
FARGO          PTCLDY    43  33  68 N18G25    30.29R
6HR MIN TEMP:  43; 6HR MAX TEMP:  56;

JAMESTOWN      CLEAR     42  32  67 NE15      30.30R
$$



USA.gov is the U.S. government's official web portal to all federal, state and local government web resources and services.